COSMOS 397 DEB, 5094

Orbit data source: Space-Track

COSMOS 397 DEB, 5094 is space debris in LEO originally from a launch on Thu, 25 Feb 1971 UTC launched from the Tyuratam Missile And Space Complex (TTMTR). Debris objects in space refer to the collection of defunct objects orbiting the Earth. Examples of debris include non-operational satellites, rocket bodies, and fragments generated from explosions, collisions, or faulty payload assembly.

Loading next visibility...
Identifier
5094, 1971-015U
Orbit
LEO
Country
Flag of CISCIS
Related business
Manufacturer
Unknown
Mission
Spacecraft
Bus & Motor
Unknown
Mass
Unknown
Launch date (UTC)
1971-02-25 (55 years ago)
Launch vehicle
Unknown
Launch site
Tyuratam Missile And Space Complex (TTMTR)
Object type
Payload
Rocket body
Debris
Shape & HBR
Unknown shape, 0.1 m
Radar Cross Section
Small (<0.1 m²)

Expand to show TLE details & history
Last TLE update: 1 day ago

TLE from 1 day ago
0 COSMOS 397 DEB
1 05094U 71015U   25348.40039045  .00021043  00000-0  29203-2 0  9997
2 05094  65.6870  13.6201 0355017 255.2958 100.8546 14.42819660662405
Epoch: 2025-12-14T09:36Z
TLE epoch observation values (Epoch: 2025-12-14T09:36:33.734Z)
Latitude
-0.00002°
Longitude
146.16568°
Altitude
807.464 km
Speed
7.421 km/s
True Right ascension
00h 54m 28s
True Declination
0° 00' 00"
Sunlit
Object was in daylight at epoch
Visualization orbit readout
Latitude
Unknown
Longitude
Unknown
Altitude
Unknown
Speed
Unknown
Apparent Right ascension
Unknown
Apparent Declination
Unknown
Sunlit
N/A
Visualization observer readout
Local Sidereal Time
13:18:20
Azimuth
Unknown
Elevation
Unknown
Doppler factor
Unknown
Orbital elements
Apogee altitude
1,000.659 km
Perigee altitude
494.702 km
Semi-major axis
7,125.818 km
Eccentricity
0.0355
Inclination
65.687°
RAAN
13.6201°
Arg. of periapsis
255.2958°
True anomaly
104.81373°
Mean anomaly
100.8546°
Eccentric anomaly
102.83785°
Mean motion
3.6082 °/min
Orbital period
99.77 mins
BSTAR
0.0029203
Loading maneuver chart data...
Computing Atmospheric mass density...
Loading historical data...
Loading historical data...
Loading historical data...
Loading historical data...
Loading historical data...
Loading historical data...
Loading historical data...

Documentation

Showing up to 5 results
|